Loading ...
Sorry, an error occurred while loading the content.
 

Shadow Bibliography

Expand Messages
  • Benny Drinnon
    [This file is from the Sf-Lovers Archives. It is provided as part of a free service in connection with distribution of Sf-Lovers Digest. This file is
    Message 1 of 3 , Jun 12 9:07 AM
      [This file is from the Sf-Lovers Archives. It is
      provided as part of a free service in connection with distribution of
      Sf-Lovers Digest. This file is currently maintained by the moderator
      of
      the Digest. It may be freely copied or redistributed in whole or in
      part
      as long as this notice and any copyright notices or other identifying
      headers or trailers remain intact. If you would like to know more
      about
      Sf-Lovers Digest, send mail to sf-lovers-request@....]


      The Shadow: Published by Street and Smith

      Issue: Title: Auth: Date: Vol: Reprint:
      1 The Living Shadow WG 04/01/31 01/1 Bantam #1,
      Pyramid #1
      2 The Eyes of the Shadow WG 07/01/31 01/2 Bantam #2
      3 The Shadow Laughs WG 10/01/31 01/3 Bantam #3
      4 The Red Menace WG 11/01/31 01/4 Pyramid #7
      5 Gangdom's Doom WG 12/01/31 01/5 Bantam #7
      6 The Death Tower WG 01/01/32 01/6 Bantam #4
      7 The Silent Seven WG 02/01/32 02/1 Pyramid #10
      8 The Black Master WG 03/01/32 02/2 Pyramid #2
      9 Mobsmen on the Spot WG 04/01/32 02/3 Pyramid #3
      10 Hands in the Dark WG 05/01/32 02/4 Pyramid #4
      11 Double Z WG 06/01/32 02/5 Pyramid #5
      12 The Crime Cult WG 07/01/32 02/6 Pyramid #6
      13 The Blackmail Ring WG 08/01/32 03/1
      14 Hidden Death WG 09/01/32 03/2 Bantam #6
      15 Green Eyes WG 10/01/32 03/3 Pyramid #13
      16 The Ghost Makers WG 10/15/32 03/4 Bantam #5
      17 The Five Chameleons WG 11/01/32 03/5
      18 Dead Men Live WG 11/15/32 03/6
      19 The Romanoff Jewels WG 12/01/32 04/1 Pyramid #9
      20 Kings of Crime WG 12/15/32 04/2 Pyramid #11
      21 Shadowed Millions WG 01/01/33 04/3 Pyramid #12
      22 The Creeping Death WG 01/15/33 04/4 Pyramid #14
      23 The Shadow's Shadow WG 02/01/33 04/5 Pyramid #16
      24 Six Men of Evil WG 02/15/33 04/6
      25 Fingers of Death WG 03/01/33 05/1 Pyramid #17
      26 Murder Trail WG 03/15/33 05/2 Pyramid #18
      27 The Silent Death WG 04/01/33 05/3 Pyramid #22
      28 The Shadow's Justice WG 04/15/33 05/4
      29 The Golden Grotto WG 05/01/33 05/5
      30 The Death Giver WG 05/15/33 05/6 Pyramid #23
      31 The Red Blot WG 06/01/33 06/1 N.S. #3
      32 The Ghost of the Manor WG 06/15/33 06/2
      33 The Living Joss WG 07/01/33 06/3
      34 The Silver Scourge WG 07/15/33 06/4
      35 The Black Hush WG 08/01/33 06/5
      36 The Isle of Doubt WG 08/15/33 06/6
      37 The Grove of Doom WG 09/01/33 07/1
      Tempo,Grosset & Dunlop
      38 Master of Death WG 09/15/33 07/2
      39 Road of Crime WG 10/01/33 07/3
      40 The Death Triangle WG 10/15/33 07/4
      41 The Killer WG 11/01/33 07/5
      42 Mox WG 11/15/33 07/6 Pyramid #8
      43 The Crime Clinic WG 12/01/33 08/1
      44 Treasures of Death WG 12/15/33 08/2
      45 The Embassy Murders WG 01/01/34 08/3
      46 The Wealth Seeker WG 01/15/34 08/4 Pyramid #21
      47 The Black Falcon WG 02/01/34 08/5 N.S. #5
      48 Gray Fist WG 02/15/34 08/6 Pyramid #15
      49 The Circle of Death WG 03/01/34 09/1
      50 The Green Box WG 03/15/34 09/2
      51 The Cobra WG 04/01/34 09/3
      52 Crime Circus WG 04/15/34 09/4
      53 Tower of Death WG 05/01/34 09/5
      54 Death Clew WG 05/15/34 09/6
      55 The Key WG 06/01/34 10/1
      56 The Crime Crypt WG 06/15/34 10/2
      57 Charg, Monster WG 07/01/34 10/3 Pyramid #20
      58 Chain of Death WG 07/15/34 10/4
      59 The Crime Master WG 08/01/34 10/5
      60 Gypsy Vengeance WG 08/15/34 10/6
      61 Spoils of the Shadow WG 09/01/34 11/1
      62 The Garaucan Swindle WG 09/15/34 11/2
      63 Murder Marsh WG 10/01/34 11/3
      64 The Death Sleep WG 10/15/34 11/4
      65 The Chinese Disks WG 11/01/34 11/5 N.S. #2
      66 Doom on the Hill WG 11/15/34 11/6
      67 The Unseen Killer WG 12/01/34 12/1
      68 Cyro WG 12/15/34 12/2
      69 The Four Signets WG 01/01/35 12/3
      70 The Blue Sphinx WG 01/15/35 12/4
      71 The Plot Master WG 02/01/35 12/5
      72 The Dark Death WG 02/15/35 12/6
      73 Crooks Go Straight WG 03/01/35 13/1
      74 Bells of Doom WG 03/15/35 13/2
      75 Lingo WG 04/01/35 13/3
      76 The Triple Trail WG 04/15/35 13/4
      77 The Golden Quest WG 05/01/35 13/5
      78 The Third Skull WG 05/15/35 13/6
      79 Murder Every Hour WG 06/01/35 14/1
      80 The Condor WG 06/15/35 14/2
      81 The Fate Joss WG 07/01/35 14/3
      82 Atoms of Death WG 07/15/35 14/4
      83 The Man from Scotland Yard WG 08/01/35 14/5
      84 The Creeper WG 08/15/35 14/6
      85 The Mardi Gras Mystery WG 09/01/35 15/1
      86 The London Crimes WG 09/15/35 15/2
      87 The Ribbon Clues WG 10/01/35 15/3
      88 The House that Vanished WG 10/15/35 15/4
      89 The Chinese Tapestry WG 11/01/35 15/5
      90 The Python WG 11/15/35 15/6
      91 Zemba WG 12/01/35 16/1 Pyramid #19
      92 The Case of Congressman Coyd WG 12/15/35 16/2
      93 The Ghost Murders WG 01/01/36 16/3
      94 Castle of Doom WG 01/15/36 16/4
      95 Death Rides the Skyway WG 02/01/36 16/5
      96 The North Woods Mystery WG 02/15/36 16/6
      97 The Voodoo Master WG 03/01/36 17/1 N.S. #3
      98 The Third Shadow WG 03/15/36 17/2
      99 The Salamanders WG 04/01/36 17/3 N.S. #5
      100 The Man from Shanghai WG 04/15/36 17/4
      101 The Gray Ghost WG 05/01/36 17/5
      102 The City of Doom WG 05/15/36 17/6
      103 The Crime Oracle WG 06/01/36 18/1 Dover
      Facsimile
      104 Murder Town WG 06/15/36 18/2
      105 The Yellow Door WG 07/01/36 18/3
      106 The Broken Napoleans WG 07/15/36 18/4
      107 The Sledge Hammer Crimes WG 08/01/36 18/5
      108 Terror Island WG 08/15/36 18/6
      109 The Golden Masks WG 09/01/36 19/1
      110 Jimbaro Death WG 09/15/36 19/2
      111 City of Crime WG 10/01/36 19/3
      112 Death by Proxy WG 10/15/36 19/4
      113 Partners of Peril TT 11/01/36 19/5
      114 The Strange Disappearance of WG 11/15/36 19/6
      Joe Cardona
      115 The Seven Drops of Blood WG 12/01/36 20/1
      116 Intimidation, Inc. WG 12/15/36 20/2
      117 Vengeance is Mine WG 01/01/37 20/3
      118 Foxhound TT 01/15/37 20/4
      119 Loot of Death WG 02/01/37 20/5
      120 Quetzal WG 02/15/37 20/6
      121 Death Token WG 03/01/37 21/1
      122 Murder House WG 03/15/37 21/2
      123 Washington Crime WG 04/01/37 21/3
      124 The Masked Headsman WG 04/15/37 21/4
      125 The Cup of Confucious TT 05/01/37 21/5
      126 Treasure Trail WG 05/15/37 21/6
      127 Brothers of Doom WG 06/01/37 22/1
      128 The Shadow's Rival WG 06/15/37 22/2
      129 Crime, Insured WG 07/01/37 22/3 N.S. #1
      130 House of Silence WG 07/15/37 22/4
      131 The Shadow Unmasks WG 08/01/37 22/5
      132 The Yellow Band WG 08/15/37 22/6
      133 Buried Evidence WG 09/01/37 23/1
      134 The Radium Murders WG 09/15/37 23/2
      135 The Pooltex Tangle TT 10/01/37 23/3
      136 The Keeper's Gold WG 10/15/37 23/4
      137 Death Turrets WG 11/01/37 23/5
      138 Teeth of the Dragon WG 11/15/37 23/6 Dover
      Facsimile
      139 The Sealed Box WG 12/01/37 24/1
      140 Racket Town WG 12/15/37 24/2
      141 The Crystal Buddha WG 01/01/38 24/3
      142 Hills of Death WG 01/15/38 24/4
      143 The Fifth Napolean TT 02/01/38 24/5
      144 The Murder Master WG 02/15/38 24/6 N.S. #4
      145 The Golden Pagoda WG 03/01/38 25/1
      146 Face of Doom WG 03/15/38 25/2
      147 The Crimson Pheonix TT 04/01/38 25/3
      148 Serpents of Siva WG 04/15/38 25/4
      149 Cards of Death WG 05/01/38 25/5
      150 The Hand WG 05/15/38 25/6
      151 Voodoo Trail WG 06/01/38 26/1
      152 The Racket's King WG 06/15/38 26/2
      153 Murder for Sale WG 07/01/38 26/3
      154 The Golden Vulture LD 07/15/38 26/4 N.S. #1
      155 Death Jewels WG 08/01/38 26/5
      156 The Green Hoods WG 08/15/38 26/6
      157 The Golden Dog Murders TT 09/01/38 27/1
      158 Crime Over Boston WG 09/15/38 27/2
      159 The Dead Who Lived WG 10/01/38 27/3
      160 Vanished Treasure WG 10/15/38 27/4
      161 The Voice WG 11/01/38 27/5
      162 Chicago Crime WG 11/15/38 27/6
      163 Shadow Over Alcatraz WG 12/01/38 28/1
      164 Double Death TT 12/15/38 28/2
      165 Silver Skull WG 01/01/39 28/3
      166 Crime Rides the Sea WG 01/15/39 28/4
      167 Realm of Doom WG 02/01/39 28/5
      168 The Lone Tiger WG 02/15/39 28/6
      169 River of Death TT 03/01/39 29/1
      170 The Vindicator WG 03/15/39 29/2
      171 Death Ship WG 04/01/39 29/3
      172 Battle of Greed WG 04/15/39 29/4
      173 Death's Harlequin TT 05/01/39 29/5
      174 The Three Brothers WG 05/15/39 29/6
      175 Smugglers of Death WG 06/01/39 30/1
      176 City of Shadows WG 06/15/39 30/2
      177 Noose of Death TT 07/01/39 30/3
      178 Death from Nowhere WG 07/15/39 30/4
      179 Isle of Gold WG 08/01/39 30/5
      180 Wizard of Crime WG 08/15/39 30/6
      181 The Crime Ray WG 09/01/39 31/1
      182 The Golden Master WG 09/15/39 31/2 Mysterious
      Press
      183 Castle of Crime WG 10/01/39 31/3
      184 The Masked Lady WG 10/15/39 31/4
      185 Ships of Doom WG 11/01/39 31/5
      186 City of Ghosts WG 11/15/39 31/6
      187 Shiwan Khan Returns WG 12/01/39 32/1 Mysterious
      Press
      188 House of Shadows WG 12/15/39 32/2
      189 Death Premium WG 01/01/40 32/3
      190 The Hooded Circle WG 01/15/40 32/4
      191 The Getaway Ring WG 02/01/40 32/5
      192 Voice of Death WG 02/15/40 32/6
      193 The Invincible Shiwan Khan WG 03/01/40 33/1
      194 The Veiled Prophet WG 03/15/40 33/2
      195 The Spy Ring WG 04/01/40 33/3
      196 The Prince of Evil TT 04/15/40 33/4
      197 Death in the Stars WG 05/01/40 33/5
      198 Masters of Death WG 05/15/40 33/6
      199 The Scent of Death WG 06/01/40 34/1
      200 "Q" WG 06/15/40 34/2
      201 The Murder Genius TT 07/01/40 34/3
      202 Gems of Doom WG 07/15/40 34/4
      203 Crime at Seven Oaks WG 08/01/40 34/5
      204 The Fifth Face WG 08/15/40 34/6
      205 Crime County WG 09/01/40 35/1
      206 The Man Who Died Twice TT 09/15/40 35/2
      207 The Wasp WG 10/01/40 35/3
      208 City of Fear TT 10/15/40 35/4
      209 Crime Over Miami WG 11/01/40 35/5
      210 The Devil's Paymaster TT 11/15/40 35/6
      211 Xitli, God of Fire WG 12/01/40 36/1
      212 The Shadow, the Hawk, and WG 12/15/40 36/2
      the Skull
      213 Forgotten Gold WG 01/01/41 36/3
      214 The Green Terror TT 01/15/41 36/4
      215 The Wasp Returns WG 02/01/41 36/5
      216 The Chinese Primrose WG 02/15/41 36/6
      217 Mansion of Crime WG 03/01/41 37/1
      218 The White Column TT 03/15/41 37/2
      219 The Time Master WG 04/01/41 37/3
      220 The House on the Ledge WG 04/15/41 37/4
      221 The League of Death WG 05/01/41 37/5
      222 Master of Flame TT 05/15/41 37/6
      223 Crime Under Cover WG 06/01/41 38/1
      224 The Thunder King WG 06/15/41 38/2
      225 The Star of Delhi WG 07/01/41 38/3
      226 The Blur WG 07/15/41 38/4
      227 The Crimson Death TT 08/01/41 38/5
      228 The Shadow Meets the Mask WG 08/15/41 38/6
      229 Gems of Jeopardy TT 09/01/41 39/1
      230 The Devil-Master WG 09/15/41 39/2
      231 Garden of Death WG 10/01/41 39/3
      232 Dictator of Crime WG 10/15/41 39/4
      233 The Blackmail King WG 11/01/41 39/5
      234 Temple of Crime WG 11/15/41 39/6
      235 Murder Mansion WG 12/01/41 40/1
      236 Crime's Stronghold WG 12/15/41 40/2
      237 Alibi Trail WG 01/01/42 40/3
      238 The Book of Death WG 01/15/42 40/4
      239 Death Diamonds WG 02/01/42 40/5
      240 Blue Face TT 02/15/42 40/6
      241 Vengeance Bay WG 03/01/42 41/1
      242 Formula for Crime WG 03/15/42 41/2
      243 Room of Doom WG 04/01/42 41/3
      244 The Jade Dragon WG 04/15/42 41/4 Doubleday
      Crime Club
      245 The Northdale Mystery WG 05/01/42 41/5
      246 Death's Bright Finger TT 05/15/42 41/6
      247 Twins of Crime WG 06/01/42 42/1
      248 The Devil's Feud WG 06/15/42 42/2
      249 Five Ivory Boxes WG 07/01/42 42/3
      250 Death About Town WG 07/15/42 42/4
      251 Legacy of Death WG 08/01/42 42/5
      252 Judge Lawless WG 08/15/42 42/6
      253 The Vampire Murders WG 09/01/42 43/1
      254 Syndicate of Sin TT 09/15/42 43/2
      255 The Devil's Partner TT 10/01/42 43/3
      256 Clue for Clue WG 10/15/42 43/4
      257 Trail of Vengeance WG 11/01/42 43/5
      258 The Murdering Ghost WG 11/15/42 43/6
      259 The Hydra WG 12/01/42 44/1 N.S. #4
      260 The Money Master WG 12/15/42 44/2
      261 The Museum Murders WG 01/01/43 44/3
      262 Death's Masquerade WG 01/15/43 44/4
      263 The Devil Monsters WG 02/01/43 44/5
      264 Wizard of Crime WG 02/15/43 44/6
      265 The Black Dragon WG 03/01/43 45/1
      266 Young Men of Death TT 04/01/43 45/2
      267 The Robot Master WG 05/01/43 45/3
      268 Murder Lake WG 06/01/43 45/4
      269 The Golden Doom TT 07/01/43 45/5
      270 Messenger of Death WG 08/01/43 45/6
      271 House of Ghosts WG 09/01/43 46/1 Doubleday
      Crime Club
      272 King of the Black Market WG 10/01/43 46/2
      273 The Muggers WG 11/01/43 46/3
      274 Murder by Moonlight WG 12/01/43 46/4 Grosset and
      Dunlop
      275 The Crystal Skull WG 01/01/44 46/5
      276 Syndicate of Death WG 02/01/44 46/6
      277 The Toll of Death WG 03/01/44 47/1
      278 Crime Caravan WG 04/01/44 47/2
      279 The Freak Show Murders WG 05/01/44 47/3 Doubleday
      Crime Club
      280 Voodoo Death WG 06/01/44 47/4 Grosset and
      Dunlop
      281 Town of Hate WG 07/01/44 47/5
      282 Death in the Crystal WG 08/01/44 47/6
      283 The Chest of Chu-Chan WG 09/01/44 48/1
      284 The Shadow Meets the Mask WG 10/01/44 48/2
      285 Fountain of Death WG 11/01/44 48/3
      286 No Time for Murder WG 12/01/44 48/4
      287 Guardians of Death WG 01/01/45 48/5
      288 Merry Mrs. MacBeth WG 02/01/45 48/6
      289 Five Keys to Crime WG 03/01/45 49/1
      290 Death Has Gray Eyes WG 04/01/45 49/2
      291 Teardrops of Buddha WG 05/01/45 49/3
      292 Three Stamps of Death WG 06/01/45 49/4
      293 The Mask of Mephisto WG 07/01/45 49/5 Doubleday
      Crime Club
      294 Murder by Magic WG 08/01/45 49/6 Doubleday
      Crime Club
      295 The Taiwan Joss WG 09/01/45 50/1
      296 A Quarter of Eight WG 10/01/45 50/2 Doubleday
      Crime Club
      297 The White Skulls WG 11/01/45 50/3
      298 The Stars Promise Death WG 12/01/45 50/4
      299 The Banshee Murders WG 01/01/46 50/5
      300 Crime Out of Mind WG 02/01/46 50/6
      301 The Mother Goose Murders WG 03/01/46 51/1 Doubleday
      Crime Club
      302 Crime Over Casco WG 04/01/46 51/2 Doubleday
      Crime Club
      303 The Curse of Thoth WG 05/01/46 51/3
      304 Alibi Trail WG 06/01/46 51/4
      305 Malmordo WG 07/01/46 51/5 N.S. #2
      306 The Blackest Mail BE 08/01/46 51/6
      307 Happy Death Day BE 09/01/46 52/1
      308 Seven Deadly Arts BE 10/01/46 52/2
      309 No Safety in Numbers BE 11/01/46 52/3
      310 Death on Ice BE 12/01/46 52/4
      311 Death Stalks the U.N. BE 01/01/47 52/5
      312 Murder in White BE 03/01/47 52/6
      313 Room 1313 BE 05/01/47 53/1
      314 Model Murder BE 07/01/47 53/2
      315 Svengali Kill BE 09/01/47 53/3
      316 Jabberwocky Thrust BE 11/01/47 53/4
      317 Ten Glass Eyes BE 01/01/48 53/5
      318 The Television Murders BE 03/01/48 53/6
      319 Murder on Main Street BE 05/01/48 54/1
      320 Reign of Terror BE 07/01/48 54/2
      321 Jade Dragon WG 09/01/48 54/3 Doubleday
      Crime Club
      322 Dead Man's Chest WG Fall /48 54/4
      323 The Magigal's Mystery WG Wintr/49 54/5
      324 The Black Circle WG Sprng/49 54/6
      325 The Whispering Eyes WG Summr/49 55/1

      The Shadow: Published by Belmont Books

      326 Return of the Shadow WG 09/01/63
      327 The Shadow Strikes DL 10/01/64
      328 Shadow Beware DL 01/01/65
      329 Cry Shadow! DL 04/01/65
      330 The Shadow's Revenge DL 10/01/65
      331 Mark of the Shadow DL 05/01/66
      332 Shadow- Go Mad! DL 09/01/66
      333 The Night of the Shadow DL 11/01/66
      334 The Shadow Destination: Moon DL 03/01/67

      The Shadow: short stories

      335 The Riddle of the Rangoon WG 06/01/79 The Shadow
      Scrapbook
      Ruby
      336 Blackmail Bay WG 02/01/80 The Duende History
      of Shadow

      337 The Shadow JL 07/01/94 Movie Novelization

      AUTHOR CODES:
      WG - Walter Gibson
      TT - Theodore Tinsley
      LD - Lester Dent
      BE - Bruce Elliott
      DL - Dennis Lynds
      JL - James Luceno

      All Shadows were published under the Street and Smith house pseudonym
      of "Maxwell Grant" except for #326 and the short stories.

      Notes on reprints:

      The Mysterious Press reprints were in one single volume hardcover
      entitled The Golden Master. The Doubleday Crime Club reprints are
      two
      reprints in one single volume hardcover.

      Belmont did not number their novels.

      Nostalgia Ventures (N.S.) began reprinting the series in 2006 with
      two novels
      per trade paperback book.

      Completed: Mar 1,1992
      Nicholas Sauer
      Updated Last: April 12, 2007

      ======================
      OTHER APPEARANCES
      ======================

      COMIC BOOKS

      Shadow Comics (Street & Smith) V1#1-V9#4 Mar40-Aug49

      Gibson scripted at least the first six years.

      The Shadow (Archie/Radio Comics) #1-8 Aug64-Sep65

      Without a doubt the worst Shadow comic. #1 & 2 has
      a blond jet-setting Lamont Cranston as the Shadow.
      From #3 on, the Shadow is a super-hero, wearing a blue and
      green outfit complete with mask and cape who fights Shiwan
      Khan. One thing the Shadow does is practice in a "Danger
      Room",
      a la the X-Men. The art and writing is reminisenct of Archie
      Comic's
      attempt to cash in on the camp Batman craze with all their
      superheroes.

      The Shadow (DC Comics) #1-12 Oct/Nov73-Aug/Sep75

      One of the better versions. Issues 1-4,6 are the best with art
      by Mike Kaluta. DC has recently reprinted these issues in
      hard-
      back as _The Private Files of the Shadow_ along with a new,
      original
      story. The Avenger teams-up in issue #11.

      The Batman (DC Comics) #252,257 1973

      Shadow crosses over into Batman. Written by Denny O'Neill,
      author
      of DC Shadow comic.

      The Shadow: Blood and Judgement (DC) #1-4 [mini-series] 1986

      A controversial updating by writer/artist Howard Chaykin with
      a new twist on his origin. DC has reprinted this in a graphic
      novel entitled _Blood and Judgement_ in 1987.

      The Shadow (DC) #1-19, 2 annuals Aug87-Jan89

      A continuation of the modern Shadow, tho without alot of the
      sex
      and violence of Chaykin. The title is broken into well defined
      "novels". The first novel has art by Bill Sienkeivitz, the
      rest
      has art by Kyle Baker, all are written by Andy Hefler. The
      Shadow
      gets killed in #13, and his body it taken by a rock star so
      that
      at the end of the series is just his head on a robot body. The
      storyline was unfinished and there where rumours the writer and
      artist would complete it in a graphic novel. Has not happened.

      Novels where: #1-6, Annual 1 : Shadows and Light
      #7 : Harold Goes to Washington
      #8-13 : Seven Deadly Finns
      #14-19 : Body and Soul
      Annual 2 : Agents

      The Shadow 1941: Hitler's Astrologer (Marvel) Graphic Novel #35.
      1988?

      A graphic novel by Dennis O'Neil and Michael Kaluta who did
      DC's
      version in the 70s. This was published while DC was doing
      their
      modern-day version and there were rumors that DC would do the
      modern
      version, and Marvel would do the 30s and 40s version as graphic
      novels. This never happened. Was published as a hard-back
      and only
      recently reprinted in paperback.

      Crime Classics (Malibu) #1-13 1988?

      Reprints the Shadow NEWSPAPER strip.

      Rocketeer Adventure Magazine (Comico) #1-3 (3 not yet published)

      This is the second Rocketeer comic series by its creator, Dave
      Stevens. Here he is hired by a "Mr. Jonas" to be a pilot. We
      know that he is really the Shadow, but copyrights prevent this
      from being said.

      The Shadow Strikes! (DC) #1-31, Annual 1 Sep89-Apr92

      DCs newest series now set in the 30s and 40s. Series has had
      good
      and bad stories. Shiwan Khan appeared in two story lines and
      we
      find out his connection with the Shadow as well as
      Margo's 'origin'.
      Doc teams up in #5,6 of Shadow Strikes and Doc #16-18.
      The series ends with a two part origin of the Shadow, a sort
      of
      "Shadow: Year One".

      The Shadow (Dark Horse) 1993-94

      Dark Horse is doing a series of self contained Shadow mini-
      series.
      Hopefully with more to come. The first is _In the Coils of
      Leviathan_
      which runs 4 issues, written by Kaluta with art by Gary Gianni.
      A two-part adaptation of the movie, written and drawn by
      Kaluta, was
      also done.


      RADIO SHOWS

      Detective Story Hour 1930-31
      Blue Coal Radio Revue 1931-32
      Love Story Drama/Love Story Hour 1931-32

      The Shadow is just a narrator for stories on these shows.

      The Shadow 1932-54

      The Shadow remains a narrator for the first 3 sessions (1932-
      35). It is not until the 4th session (1937-38), that the
      'classic' radio Shadow done by Orson Wells and others begins.
      This version is where most people remember the Shadow from.
      This is where Margo Lane came from and is why most people think
      the Shadow is Lamont Cranston (those who read the pulps know
      better!)


      NEWSPAPER STRIP

      The Shadow also had a newspaper strip. It lasted from 1941-42.
      Gibson scripted it with art by Vernon Greene. Ledger Syndicate
      produced it. Malibu Comics recently reprinted many of them
      (all of them??) in _Crime Classics_ #1-13.


      MOVIES AND MOVIE SERIALS

      _The Shadow Strikes_ (Grand National Pictures, 1937)
      _International Crime_ (Grand National, 1938)

      Feature films starring Rod La Rocque as Cranston/Shadow. The
      first was loosely based on a Gibson novel, the second on
      Tinsley's 1937 novel _Foxhound_.
      Both are available on video [see Filmfax magazine]

      _The Shadow_ (Columbia, 1940)

      A fifteen chapter serial starring Victor Jory.

      _The Shadow Returns_ (Monogram, 1946)
      _Behind the Mask_ (Monogram, 1946)
      _The Missing Lady_ (Monogram, 1946)

      A trio of "B" films starring Kane Richard as Cranston/Shadow.

      _Invisible Avenger_ (Republic, 1958)
      [re-released as _Bourbon Street Shadows_, 1962]

      A feature starring Richard Derr as Cranston.
      When re-released in 1962 it had new footage.
      1958 version available on Video [see Filmfax mag]

      _The Shadow_ (Universal, 1994)

      A feature starring Alex Baldwin as Lamont Cranston. Also
      has
      Shiwan Khan (John Lone). Movie is a mixture of elements of
      the pulp
      and radio versions of the Shadow, with a few new twists.
      Don't know if there are plans for any sequals.


      Completed March 12, 1992
      Updated last: Aug 8, 1994
      Michael R. Brown

      =*=*=*=*=*=*=*=*=*=*=*=*=*=*=*=*=*=*=*=*=*=*=*=*=*=*=*=*=*=*=*=*=*=*

      Legal Stuff:

      This document is Copyright (C) 1992-94 by Michael R Brown. All
      rights reserved.

      It can be used in its entirety for personal use. It may not be sold
      or
      distributed for a fee without prior permission.

      While I make every effort to ensure the accuracy of the information,
      it
      is provided "as is" without express of implied warranty.

      Permissions and Corrections: Send requests for publication
      permissions
      or information corrections to "michaelb@...". Also include an
      e-mail address to which I can send requests for more information.

      Michael Rogero Brown
      IBM
      Boca Raton, FL
      mikal@...
    • Benny Drinnon
      I can t say that I agree with everything that is said here. I don t consider that the Archie comics version of the Shadow is the worst version, and this list
      Message 2 of 3 , Jun 12 9:16 AM
        I can't say that I agree with everything that is said here. I don't
        consider that the Archie comics version of the Shadow is the worst
        version, and this list even mentions that one DC comics version ended
        up with the Shadow's head on a robot body, as well as mentioning the
        spurious "origin" they gave Margo Lane in "The Shadow Strikes!" series.
        But this list does have all the Shadow stories listed in it. - the
        living Shadow fan
      • Benny Drinnon
        Wikkipedia mentions that the DC comics series where the Shadow s head was put on a robot body was not popular with fans of the traditional version of the
        Message 3 of 3 , Jun 12 9:34 AM
          Wikkipedia mentions that the DC comics series where the Shadow's head
          was put on a robot body "was not popular with fans of the traditional
          version of the Shadow". I'm not surprised. My own feeling was that the
          guys who did those comics probably should have been working on MAD
          magazine instead of the Shadow. - the living Shadow fan

          --- In Da_Shadows_Nose@yahoogroups.com, "Benny Drinnon"
          <bennydrinnon@...> wrote:
          >
          > I can't say that I agree with everything that is said here. I don't
          > consider that the Archie comics version of the Shadow is the worst
          > version, and this list even mentions that one DC comics version ended
          > up with the Shadow's head on a robot body, as well as mentioning the
          > spurious "origin" they gave Margo Lane in "The Shadow Strikes!"
          series.
          > But this list does have all the Shadow stories listed in it. - the
          > living Shadow fan
          >
        Your message has been successfully submitted and would be delivered to recipients shortly.